GFSMW_250_spd_132.txt.gz
Wind_Speed
9 10 13 18 21 23 25 23 12 11 7 6 6 12 11 19 26 36 38 34 34 35 35 36 34 33 34 28 25 27 25 26 25 21 17 23 24 30 26 20 21 20 17
12 8 9 10 16 19 24 25 18 11 9 8 10 11 14 24 34 37 35 37 40 39 41 37 34 34 31 28 27 27 29 25 16 10 10 12 7 14 16 17 17 22 19
13 10 11 8 13 16 19 23 22 17 10 10 13 17 15 21 26 30 31 37 39 40 41 37 36 36 32 28 24 29 24 17 9 4 4 5 5 6 14 19 25 29 25
17 11 8 8 8 11 13 18 21 19 12 10 14 16 18 19 24 29 34 33 35 38 38 31 31 33 31 24 15 20 14 10 10 4 1 0 7 7 7 18 21 29 24
21 16 10 4 6 7 9 14 17 19 14 14 13 17 20 23 24 27 28 30 34 36 35 32 22 21 21 12 10 24 10 9 3 5 5 3 1 7 17 17 19 15 20
26 21 16 8 6 4 5 7 11 16 14 15 16 18 22 26 28 28 29 41 35 33 27 27 24 15 21 17 18 14 5 2 3 5 7 4 4 8 15 10 8 7 16
31 24 19 16 9 5 3 3 5 9 12 10 15 19 23 28 28 30 33 40 35 31 29 28 16 16 18 18 19 17 13 8 7 8 6 5 6 12 12 11 14 11 11
36 30 26 19 13 11 5 6 2 3 6 8 15 18 21 26 31 36 36 33 34 31 24 22 21 19 24 22 19 12 14 12 10 8 6 4 15 16 13 10 10 11 10
37 35 31 27 18 15 12 10 8 6 4 9 13 19 20 24 28 35 35 29 28 25 23 22 22 23 20 16 13 9 8 8 11 11 11 10 18 15 9 8 5 4 4
49 41 38 35 29 22 19 13 13 13 10 10 15 20 24 25 27 33 34 30 31 29 24 23 22 20 17 16 12 9 8 8 10 13 14 13 13 12 8 5 2 0 1
55 49 45 42 38 27 24 18 15 16 15 16 18 21 22 25 28 30 31 32 30 27 24 23 22 20 19 17 14 13 11 13 18 18 21 19 16 12 9 5 7 7 6
58 55 48 44 43 36 29 26 19 17 20 20 22 24 26 23 23 25 27 27 26 24 23 24 23 21 19 19 19 17 17 21 24 21 20 18 17 15 13 11 11 12 10
52 61 58 51 42 42 36 33 25 19 21 24 26 27 27 29 27 25 21 20 20 23 24 24 23 22 19 18 17 19 21 25 25 23 22 19 18 17 15 12 12 10 12
59 63 65 60 56 52 47 38 32 25 22 23 27 29 29 29 32 29 25 23 22 22 22 23 23 22 22 20 20 24 25 26 23 22 22 20 17 15 14 14 15 15 14
59 61 66 66 56 52 53 43 38 33 29 27 27 28 29 29 30 31 29 28 27 23 20 22 25 26 25 26 25 25 26 26 23 24 22 23 23 21 20 19 17 17 22
62 62 67 71 70 55 53 50 46 41 39 32 33 31 30 31 33 33 31 30 29 28 28 27 26 26 26 26 27 27 27 27 27 27 29 33 33 30 27 26 25 28 30
54 66 68 73 79 76 63 60 56 50 46 38 51 35 29 29 33 34 33 35 33 31 31 31 31 32 33 33 33 32 32 32 33 34 35 38 38 35 36 36 36 37 38
57 58 71 74 79 78 72 68 64 59 55 56 47 47 50 46 36 38 38 38 37 38 34 35 35 38 38 37 38 37 37 36 36 37 38 40 42 44 45 45 45 45 46
63 63 60 74 76 81 78 73 71 67 59 56 45 51 37 52 55 44 47 49 48 45 45 43 39 38 39 40 40 40 42 43 42 42 42 41 44 50 50 50 51 54 55
64 68 69 69 77 80 81 77 81 69 65 51 53 49 32 39 62 55 48 54 53 52 50 51 49 49 46 46 45 46 46 46 48 49 48 48 50 51 51 54 56 57 60
62 69 70 68 79 78 82 82 82 74 63 59 54 53 48 40 39 46 40 52 54 53 52 56 55 51 50 50 50 52 51 51 54 56 55 56 57 59 61 62 64 65 65
62 61 68 69 73 81 86 84 81 76 72 64 63 56 53 45 45 52 46 35 47 52 49 54 57 53 54 57 54 56 56 57 59 62 62 62 65 67 68 68 68 70 72
60 62 62 67 77 75 82 88 88 81 79 76 71 58 59 63 37 57 60 71 69 65 55 61 62 62 64 64 63 65 64 64 62 63 66 68 70 73 71 72 74 76 78
57 58 57 59 65 75 76 77 87 87 84 85 82 75 76 80 67 66 60 62 61 61 61 63 64 67 69 71 71 70 70 70 73 73 79 80 80 80 82 83 84 86 87
54 56 55 59 62 72 78 78 78 89 89 93 87 93 84 88 89 84 81 72 76 78 76 75 75 73 76 76 76 75 78 80 83 84 85 88 89 88 89 91 91 94 96
40 45 54 48 64 69 74 76 76 82 87 94 96 96 85 83 88 90 84 86 71 79 90 90 90 86 86 85 85 86 86 86 94 94 94 93 92 94 97 98 99 103 104

GFSMW_250_spd_135.txt.gz
Wind_Speed
13 12 14 17 21 23 26 27 19 10 5 6 10 12 16 29 34 36 32 33 34 36 34 34 38 39 37 30 26 28 29 30 23 22 21 20 14 11 13 15 18 17 18
14 13 10 11 15 20 24 27 24 14 5 6 10 13 17 31 36 31 31 31 33 36 34 36 40 38 33 29 27 27 26 18 17 15 11 8 11 12 8 17 16 16 22
15 16 15 13 10 15 18 23 25 15 4 11 13 16 20 29 34 33 32 30 35 34 34 37 38 35 31 30 26 26 19 11 6 4 3 8 9 13 15 23 22 17 18
18 16 16 14 13 9 14 18 24 20 7 12 14 17 24 27 29 30 30 34 36 36 35 36 33 32 29 28 27 21 10 4 3 7 7 6 13 14 21 22 20 15 19
22 17 16 14 12 9 9 12 16 19 8 6 17 18 25 26 27 28 31 32 35 34 34 35 34 28 26 29 29 17 7 8 5 3 1 8 7 17 18 16 18 18 16
27 22 19 15 9 9 6 9 12 14 8 2 10 20 23 26 28 34 33 34 36 34 36 36 32 25 15 22 24 18 9 5 4 5 5 5 9 18 12 7 11 11 12
34 30 23 19 14 10 7 4 9 11 8 4 11 17 27 30 37 37 37 43 40 32 32 26 25 19 16 16 23 17 8 2 6 6 4 4 9 18 8 4 10 9 7
42 36 28 23 17 14 8 6 3 9 8 3 13 20 27 34 38 41 41 39 38 33 30 25 21 20 18 13 14 10 9 8 8 7 7 6 15 19 15 12 9 8 5
46 41 34 27 22 18 13 9 7 6 8 2 15 21 25 31 35 40 37 34 34 33 27 21 16 17 20 20 17 14 9 9 7 7 6 8 16 14 14 9 7 2 1
49 46 42 33 28 25 18 14 12 10 9 5 9 22 22 27 36 39 36 29 29 28 25 21 20 22 24 23 19 17 16 14 13 13 11 11 18 14 10 6 3 1 2
52 52 50 41 35 32 27 23 18 16 12 11 9 17 26 27 33 38 35 28 24 23 28 24 24 24 21 20 20 15 14 14 14 17 20 18 19 17 14 11 9 8 8
47 55 55 50 45 39 36 30 21 23 19 13 17 17 21 28 33 38 36 31 28 24 25 26 25 23 19 19 19 16 15 15 15 17 20 20 19 17 15 13 10 11 13
48 51 58 58 53 46 41 37 30 26 23 23 23 22 24 25 29 33 33 29 27 26 22 20 22 23 22 21 19 20 19 19 19 21 22 22 22 20 17 15 16 14 14
49 50 54 61 61 56 46 43 38 33 28 28 28 27 27 26 26 29 33 34 32 28 25 23 24 22 22 22 21 20 21 22 24 25 27 25 23 22 21 22 19 18 20
48 52 53 55 62 60 56 48 47 40 37 30 29 30 29 30 31 32 32 30 29 26 23 24 26 27 25 26 28 26 23 23 27 29 29 27 25 26 25 22 23 24 24
46 48 54 57 58 65 63 58 52 47 46 39 34 32 33 34 34 37 36 35 32 31 30 30 31 29 28 27 28 27 25 27 29 32 31 29 30 30 30 31 32 32 32
52 51 52 58 63 65 69 67 60 54 50 45 41 34 35 37 39 38 38 40 39 35 33 32 31 31 29 28 27 28 30 31 32 31 34 34 34 35 37 38 40 41 41
53 55 55 57 64 69 72 74 71 63 57 55 49 46 49 42 43 41 41 40 39 38 36 38 37 37 33 34 33 34 34 35 36 37 37 39 39 39 40 42 43 45 48
48 56 59 60 62 70 73 76 76 71 64 63 56 50 52 49 44 44 38 34 37 40 43 44 42 39 39 37 37 38 38 41 42 43 42 42 43 44 46 45 46 47 49
55 55 57 65 64 69 76 78 79 74 69 69 64 60 59 51 46 47 43 46 47 44 46 46 45 46 44 44 43 40 40 42 44 45 43 45 47 48 51 54 54 54 55
63 61 59 64 65 69 76 80 83 82 76 72 69 65 63 65 56 52 52 52 53 50 57 60 55 53 50 50 53 51 49 49 48 50 50 51 51 52 54 57 59 62 64
61 61 60 64 68 69 73 81 83 87 87 84 73 70 65 61 56 49 48 41 44 53 59 59 51 52 57 56 58 54 47 47 56 60 54 55 57 57 59 61 61 61 62
45 54 59 62 68 70 72 73 81 84 90 88 84 76 71 65 63 58 54 50 41 42 48 52 55 56 59 59 53 48 49 57 60 61 65 68 66 66 67 68 69 71 72
34 46 54 58 64 68 70 73 73 82 83 85 87 82 76 72 69 61 56 57 52 49 47 60 49 50 49 55 58 56 67 73 69 71 71 72 73 74 77 80 81 81 85
23 39 46 54 57 62 64 68 74 75 82 78 84 84 76 70 64 67 60 55 57 67 60 61 61 56 62 54 54 59 62 67 71 71 71 78 81 82 83 85 89 92 95
13 21 36 45 50 55 56 59 69 74 74 77 70 77 76 79 79 74 68 58 64 69 57 61 66 66 66 67 71 72 74 79 82 85 85 86 85 87 91 95 97 98 102

GFSMW_250_spd_138.txt.gz
Wind_Speed
12 15 17 20 19 23 26 28 22 12 3 5 3 11 20 23 28 29 31 30 33 33 35 36 39 38 35 37 31 31 26 22 20 16 14 13 14 17 20 23 24 26 27
11 12 14 19 20 21 23 27 25 13 4 3 7 11 23 28 29 30 31 35 35 33 38 38 41 37 38 36 33 32 23 23 16 17 10 11 14 21 21 21 21 23 24
12 13 13 15 20 20 21 23 26 14 6 3 8 14 27 28 28 30 30 31 32 35 38 39 44 37 38 35 36 27 22 15 11 7 7 10 14 24 22 19 19 21 22
23 15 14 14 15 17 19 20 23 18 7 4 6 14 25 27 29 29 31 30 32 37 38 42 43 36 37 36 33 23 13 7 7 8 15 11 17 20 20 19 17 17 19
20 22 17 14 14 13 15 19 18 22 10 6 7 10 23 25 27 29 30 31 33 36 37 42 39 35 35 33 30 18 9 7 5 5 11 11 19 19 18 21 16 12 13
27 26 18 16 14 13 13 15 13 17 12 5 8 12 16 24 28 30 32 33 34 36 37 35 33 33 30 30 26 16 11 9 4 4 6 8 22 17 13 12 13 13 9
29 25 24 22 16 14 12 14 13 10 15 5 7 13 19 24 23 27 33 34 38 38 34 32 27 31 31 29 19 13 10 7 6 7 7 10 22 19 8 9 10 11 10
39 33 33 27 20 17 12 13 12 10 11 8 5 12 18 20 27 31 32 33 35 37 39 32 30 26 29 30 22 17 12 9 3 11 9 9 20 16 11 13 11 9 7
45 41 37 34 27 21 16 13 14 10 7 7 4 13 20 27 31 34 33 32 34 38 32 26 24 23 23 25 26 20 15 6 6 9 9 10 19 18 16 13 12 8 4
47 48 45 42 36 28 24 17 15 12 8 3 5 13 20 29 33 38 39 36 36 32 26 26 21 24 22 22 19 19 16 12 9 8 12 14 20 22 18 14 10 7 6
40 47 49 46 42 38 32 27 19 15 11 10 3 17 22 27 35 40 39 32 38 30 26 26 20 20 20 19 19 19 14 11 13 15 14 17 23 25 22 16 13 11 11
40 42 45 49 49 46 39 32 29 21 17 13 13 8 22 28 35 40 37 34 32 30 24 23 18 18 19 21 21 19 15 16 17 17 20 21 22 25 21 19 19 18 13
40 41 44 45 50 49 45 40 35 28 23 21 19 18 14 26 31 37 40 33 29 27 26 27 26 22 22 22 21 21 20 20 21 20 21 25 24 24 24 23 22 21 17
44 42 45 46 48 51 50 47 40 37 30 28 26 23 22 19 30 35 40 39 33 30 29 29 30 28 26 23 22 24 23 24 22 18 21 22 23 22 29 28 25 24 22
44 45 46 48 49 52 56 53 49 43 37 32 32 29 29 22 26 29 36 38 36 32 32 31 29 30 30 30 30 29 27 25 22 19 19 21 27 32 32 30 28 28 27
39 41 46 50 52 53 57 60 56 50 45 40 37 37 36 33 31 29 30 34 36 34 34 35 32 31 32 31 30 28 26 29 28 28 28 29 30 34 33 32 33 32 33
47 45 44 47 50 54 55 57 62 58 53 48 45 41 42 42 41 37 36 37 37 38 39 38 35 33 32 32 32 29 29 27 30 31 29 30 33 35 38 37 38 39 38
40 43 49 48 48 51 57 59 60 63 62 57 51 49 43 44 40 38 35 39 43 42 42 43 42 39 38 35 36 30 29 30 31 32 34 36 37 37 40 43 42 43 44
44 46 47 50 52 53 54 62 63 62 66 64 59 55 51 44 42 41 39 36 37 41 43 46 45 43 41 39 38 40 37 38 36 37 38 40 41 43 44 45 47 46 47
44 47 49 51 53 56 57 59 66 67 65 70 67 61 57 56 55 45 45 44 46 46 41 47 47 46 46 44 46 46 42 42 40 42 42 43 46 47 48 47 47 48 49
44 50 55 60 60 60 62 63 64 69 72 68 73 71 64 60 60 56 50 50 51 46 44 48 43 43 42 45 47 50 51 47 49 50 50 50 50 48 54 54 54 56 57
54 56 60 64 65 67 66 66 68 69 73 74 73 78 72 65 64 64 62 57 54 56 53 51 47 47 48 52 51 53 57 59 56 59 60 60 61 63 61 58 61 61 60
31 31 31 34 58 72 71 68 67 70 73 75 78 77 81 78 70 71 66 63 57 53 53 53 47 44 50 53 58 59 59 62 62 62 60 62 59 58 60 60 64 70 72
36 39 43 39 45 56 68 71 68 68 72 72 78 80 78 79 72 76 74 69 68 65 63 61 52 50 51 50 51 54 58 63 63 69 62 55 61 66 64 66 76 77 77
36 31 40 43 35 45 57 63 67 68 69 72 75 80 78 75 73 78 79 76 72 70 65 64 63 53 52 53 58 58 60 60 62 59 59 62 65 73 74 72 75 80 81
30 31 36 42 28 31 46 51 55 61 64 66 73 76 81 78 79 79 79 77 75 74 70 66 56 57 60 59 63 63 65 64 64 67 68 64 67 69 76 81 86 88 94

GFSMW_250_spd_141.txt.gz
Wind_Speed
10 8 13 16 21 21 23 26 18 3 5 8 15 23 29 31 32 30 30 26 26 23 31 37 39 38 34 30 40 29 22 17 11 9 12 16 22 22 24 22 25 27 29
12 7 11 15 18 20 22 24 25 9 4 6 6 12 19 31 34 31 32 26 27 29 37 42 42 39 36 32 39 25 22 17 14 9 13 20 22 19 21 23 25 27 26
16 10 11 13 16 18 19 22 24 16 8 7 1 7 15 24 31 32 33 31 31 36 42 44 44 39 37 35 37 25 19 15 12 7 12 16 21 17 17 19 22 24 24
20 15 13 11 13 15 17 20 21 22 9 6 2 10 16 23 29 31 34 34 38 40 44 45 42 40 38 36 33 25 19 13 7 7 10 17 19 16 19 17 17 17 17
23 22 19 11 13 12 15 17 19 21 9 7 4 12 15 20 21 23 30 35 38 44 45 46 41 43 37 36 27 26 13 11 8 13 12 19 17 16 17 17 15 17 15
28 25 19 16 11 11 13 14 15 16 16 4 3 13 18 20 24 26 27 33 39 44 46 47 42 41 37 37 31 24 13 9 7 12 12 19 17 17 16 12 11 18 13
36 30 27 22 15 12 11 13 12 14 15 4 0 6 14 16 25 27 28 31 39 44 48 47 42 40 40 36 30 21 14 10 6 8 9 13 21 17 13 11 13 10 10
40 36 32 25 24 19 14 11 9 12 12 10 2 6 11 15 19 25 32 35 37 41 46 43 40 41 39 35 29 21 14 9 7 10 10 10 23 20 9 12 12 10 11
39 40 35 32 27 26 21 17 11 7 8 8 3 10 15 18 17 28 33 36 38 39 41 36 35 37 36 34 28 23 19 11 9 13 13 12 21 22 13 14 14 12 12
35 38 40 38 34 31 27 23 17 12 6 2 3 8 16 21 26 31 32 34 37 37 38 36 36 34 32 31 28 25 21 17 12 10 12 13 15 23 19 18 16 13 13
33 33 38 40 43 38 36 30 24 18 14 4 2 7 16 23 30 32 35 35 36 38 37 34 33 33 30 31 32 28 23 20 16 12 13 14 15 22 25 21 18 17 15
34 33 34 36 39 43 41 37 32 28 19 11 7 9 17 22 28 33 37 37 36 38 33 31 29 28 26 22 23 23 21 19 17 17 14 15 13 24 26 26 23 22 20
37 38 36 35 37 41 44 42 37 34 27 20 15 18 17 24 29 34 36 39 43 41 37 32 30 24 21 22 25 23 21 20 18 16 16 20 19 19 24 28 27 28 27
40 41 41 39 39 41 43 43 44 41 37 30 25 25 23 23 28 34 40 43 42 44 39 35 34 29 27 23 24 23 24 21 20 19 23 23 18 21 25 29 28 30 33
40 41 42 43 44 44 44 45 46 46 43 39 33 30 26 26 25 37 43 46 45 43 42 36 33 30 30 28 27 25 26 27 26 24 23 23 22 16 26 32 32 32 35
38 41 43 43 45 47 48 47 48 51 51 47 39 35 33 32 28 29 39 44 46 45 40 36 34 33 34 33 33 30 31 32 31 29 30 29 27 30 32 35 37 37 36
39 40 40 40 43 47 50 51 51 51 54 52 46 42 38 40 33 34 31 37 47 48 44 40 38 39 36 34 34 34 34 34 36 35 34 33 33 32 35 38 37 37 40
32 33 34 38 44 44 47 52 53 53 53 56 54 50 47 44 44 41 37 36 37 39 44 46 41 39 41 38 34 34 35 37 39 41 38 33 33 36 38 39 39 39 40
36 38 40 41 39 43 48 47 54 57 57 58 60 58 55 51 48 47 45 43 41 37 40 42 43 42 43 43 41 40 40 41 41 42 41 37 33 36 40 42 42 44 46
35 36 35 37 44 45 46 51 53 56 61 62 62 64 63 60 56 54 51 50 49 46 46 45 45 45 47 48 46 46 47 44 44 43 42 45 44 45 47 48 49 48 47
33 36 39 40 43 46 50 53 55 59 60 62 65 66 69 70 65 61 57 56 52 51 49 46 46 42 44 46 44 48 48 47 48 48 46 47 50 51 53 53 51 53 58
29 31 35 40 45 49 55 57 58 60 64 65 66 68 69 72 73 67 64 59 56 52 51 46 49 48 46 47 47 46 45 44 47 50 51 48 56 60 60 67 65 57 62
33 35 39 45 51 53 55 62 63 66 69 70 69 69 71 72 75 74 68 68 63 61 56 52 53 50 51 53 54 53 51 51 52 53 53 58 60 61 64 65 65 66 71
33 35 39 46 43 45 49 49 49 71 75 72 72 72 71 73 73 76 75 70 69 67 61 59 59 59 62 63 64 61 57 56 56 58 59 57 58 60 63 67 69 69 70
33 35 37 39 33 40 48 61 54 61 65 71 72 74 72 72 74 73 79 77 74 72 70 70 71 67 65 65 63 57 59 57 63 64 64 63 59 60 65 68 70 71 70
34 35 37 39 31 36 42 42 49 56 55 59 70 72 70 70 75 74 72 77 77 76 76 73 74 75 72 69 66 69 64 63 64 67 67 68 69 69 71 75 78 79 80

GFSMW_250_spd_144.txt.gz
Wind_Speed
10 7 7 12 16 17 19 20 21 4 10 20 24 28 28 29 28 31 35 33 31 29 29 26 26 32 30 27 28 31 24 12 9 11 17 18 20 24 23 22 23 22 24
12 8 5 9 14 15 17 18 22 12 5 9 16 26 32 32 32 30 29 29 29 27 28 29 31 36 33 32 32 30 24 12 11 9 15 17 20 23 20 21 22 20 20
13 12 10 9 9 14 15 17 18 18 8 8 5 11 21 31 32 32 33 29 27 29 31 31 37 39 35 38 30 30 22 14 12 10 13 19 20 23 21 19 19 18 19
16 14 12 8 8 11 14 14 15 19 12 10 7 2 13 21 32 35 30 31 32 32 32 38 42 41 36 41 32 25 20 15 10 10 9 15 16 22 20 18 16 16 14
22 17 14 13 10 8 12 13 14 16 16 9 7 2 5 12 20 29 27 31 33 33 37 44 43 40 36 41 31 27 19 16 9 9 12 17 16 16 18 18 15 11 9
26 24 22 17 13 10 9 13 12 13 15 8 6 2 2 9 19 24 27 32 32 35 43 44 44 40 36 39 36 29 20 14 9 12 16 20 16 17 19 18 14 13 11
34 28 27 23 17 14 12 13 11 12 12 6 5 6 7 11 17 22 28 32 36 42 46 45 44 40 36 37 38 30 18 13 10 12 17 18 16 18 19 17 18 17 17
41 38 32 27 24 19 15 16 14 11 9 9 5 9 15 13 19 18 25 32 38 46 46 48 44 41 36 36 38 31 20 16 9 11 15 19 21 19 16 15 14 13 15
39 41 38 32 30 28 20 19 17 13 10 7 1 10 14 17 21 21 28 33 39 46 46 47 44 41 38 38 39 33 26 17 8 9 17 16 15 27 19 15 16 16 14
34 35 36 35 33 31 26 22 20 14 10 4 2 9 16 20 19 25 32 34 41 44 44 46 45 42 38 40 35 35 26 19 14 10 11 15 15 17 27 22 18 19 19
28 30 34 36 35 35 33 27 25 23 14 10 3 5 14 18 21 31 36 37 38 40 42 46 44 39 36 37 37 33 29 23 19 15 15 15 15 16 20 28 22 21 22
28 30 32 33 36 37 38 34 30 30 23 18 11 8 12 15 23 31 35 36 37 40 45 47 42 38 37 35 34 37 34 29 24 23 20 17 15 14 16 24 28 26 27
31 30 30 31 34 35 37 39 41 36 33 25 21 15 12 15 20 31 33 33 38 43 45 46 43 42 40 37 35 35 33 31 30 25 21 20 16 15 17 22 26 29 32
34 32 33 34 35 36 36 37 39 41 39 35 28 25 21 21 25 28 34 40 41 42 44 46 42 41 37 36 35 32 29 31 31 28 24 23 22 19 21 22 24 26 28
37 37 37 37 38 38 38 39 40 41 43 41 36 31 26 27 28 34 37 42 43 45 44 45 42 40 36 35 35 32 32 35 34 30 28 26 24 22 23 23 25 28 27
40 40 40 40 40 42 43 43 42 42 45 46 45 40 36 31 31 34 39 41 44 47 49 49 44 41 43 40 36 35 32 31 31 30 30 29 29 28 29 27 31 35 35
40 39 40 41 41 42 44 47 47 46 45 47 49 48 44 40 37 37 37 45 49 49 53 51 51 46 43 43 41 37 36 35 34 33 33 34 33 33 33 36 38 40 41
36 38 39 41 39 40 42 46 48 50 49 48 50 53 51 47 44 42 40 41 50 54 55 53 51 51 49 45 41 38 38 37 36 37 38 37 38 38 39 41 42 44 45
31 31 33 34 34 35 37 43 47 48 51 52 52 53 57 56 52 50 47 44 43 46 52 55 55 54 51 50 43 43 40 41 39 40 39 38 41 43 42 42 43 41 44
30 31 33 36 38 39 39 39 41 48 49 54 56 57 58 62 62 59 54 52 48 47 47 52 56 57 57 54 49 46 47 47 44 42 43 43 45 45 45 41 44 48 48
27 27 29 32 34 37 39 42 43 46 48 54 56 60 62 62 66 67 63 58 55 52 51 49 49 49 50 55 54 51 47 50 50 48 50 51 54 51 47 47 46 50 50
25 26 27 30 32 34 36 39 45 49 52 55 58 60 62 66 67 70 70 67 62 58 58 55 53 49 49 50 51 52 50 47 46 43 45 46 45 44 45 47 52 52 53
27 30 30 30 33 33 36 41 44 49 54 57 61 64 65 66 69 72 73 74 71 67 64 62 58 58 54 52 51 51 50 45 45 51 53 54 52 53 51 51 56 59 61
27 28 30 31 31 32 36 38 48 51 54 59 62 65 68 69 71 74 76 75 77 75 70 66 63 61 61 53 49 51 53 55 57 59 60 60 58 61 61 59 61 66 67
30 29 31 32 31 33 37 42 45 44 48 54 60 67 68 74 76 75 74 76 78 78 78 72 68 65 64 55 55 56 57 60 60 64 65 66 65 65 66 65 71 73 74
34 33 34 34 34 36 40 41 44 41 47 51 57 63 69 72 73 74 76 75 77 79 79 77 74 70 67 66 65 64 62 63 63 63 68 70 69 70 68 68 73 76 78

GFSMW_250_spd_147.txt.gz
Wind_Speed
13 7 4 6 10 11 13 12 14 4 13 29 29 29 31 32 42 42 37 36 29 27 26 25 22 22 22 22 25 26 21 8 8 13 14 18 17 14 14 15 13 17 18
15 10 7 5 7 11 11 12 12 10 3 8 20 30 32 31 31 42 45 40 34 32 32 30 25 25 25 24 26 28 22 11 10 14 18 20 20 11 12 12 13 13 16
19 15 11 11 7 10 11 11 12 12 3 5 11 21 31 37 36 32 34 39 37 35 35 33 29 29 28 26 29 30 23 13 9 14 19 22 18 19 15 13 10 12 12
23 18 14 12 7 7 10 10 13 12 11 4 3 10 19 32 39 39 33 30 30 31 32 34 33 33 33 28 32 31 26 14 11 10 17 23 19 18 15 13 11 9 10
24 22 16 13 9 8 10 13 13 13 14 6 3 3 6 18 31 35 37 29 29 28 32 36 35 36 37 33 33 32 27 18 11 10 12 16 20 19 16 16 14 7 3
27 24 22 16 12 12 8 12 13 12 14 10 2 6 4 12 25 32 34 30 30 31 34 36 38 39 39 36 34 30 25 19 14 10 16 16 18 19 24 20 17 14 12
34 31 25 24 20 20 13 12 13 11 10 13 5 6 8 9 19 29 31 28 31 34 36 38 40 42 41 38 39 30 25 17 14 9 16 17 21 18 20 21 20 16 15
43 37 33 30 25 23 19 13 13 11 8 10 6 4 9 10 15 20 27 29 35 34 37 39 43 43 42 38 40 34 26 20 16 10 15 16 17 16 20 23 23 22 22
45 41 38 34 31 26 25 20 16 11 6 4 5 6 10 13 17 20 25 34 38 37 39 41 46 45 43 40 40 39 32 24 17 11 12 19 19 21 19 19 18 19 18
46 45 44 42 37 31 31 27 21 17 12 6 4 6 12 16 19 21 24 35 37 40 43 44 47 48 44 42 41 39 34 27 20 15 8 11 20 17 23 26 21 18 21
36 38 38 39 36 35 32 31 27 23 19 15 11 7 14 18 21 22 25 30 37 40 42 48 49 50 46 44 40 42 36 29 24 21 16 10 12 15 16 19 26 30 24
31 30 32 34 35 35 33 34 33 29 25 22 17 10 11 18 22 20 25 31 33 37 42 49 52 51 47 44 40 41 41 37 32 26 21 18 17 17 18 21 21 23 29
30 31 30 30 30 31 32 33 35 34 31 29 24 18 12 17 20 20 25 31 34 37 42 49 52 51 47 44 41 41 40 38 37 33 26 24 23 22 18 17 17 20 23
32 32 32 32 33 34 33 34 36 38 39 36 32 26 20 16 12 20 25 30 35 37 43 51 52 50 46 47 42 43 39 38 37 36 34 32 28 26 24 23 21 19 24
37 37 37 36 37 37 37 36 36 38 41 43 42 37 30 26 24 24 26 32 33 34 38 48 53 51 47 44 44 44 41 39 36 33 34 34 33 31 27 27 26 25 26
43 42 41 39 37 38 38 40 40 40 39 42 44 43 36 34 28 29 30 34 36 37 39 45 51 52 49 45 44 42 39 38 36 35 37 39 38 37 31 29 28 27 29
45 44 41 39 40 41 42 43 42 44 43 41 42 46 46 42 40 33 34 38 42 41 45 46 48 52 53 50 46 43 41 42 39 37 39 40 40 38 35 33 33 33 33
43 41 40 40 42 43 44 44 44 45 47 47 44 45 49 50 48 44 41 42 45 47 49 49 51 53 55 54 51 49 45 44 41 39 42 41 41 39 37 36 35 36 38
41 39 39 40 42 42 40 41 43 45 46 49 49 48 49 52 54 54 50 47 45 49 52 53 53 55 56 58 53 49 50 50 49 45 42 45 45 42 42 41 37 40 42
36 37 37 37 38 37 36 37 38 39 43 46 49 52 53 53 56 59 59 56 53 52 51 55 55 58 58 62 59 54 51 51 52 49 47 45 48 43 41 40 43 45 48
33 32 32 34 34 35 35 36 37 40 41 42 43 48 53 57 58 60 63 64 62 58 54 54 57 59 60 61 64 58 57 60 58 53 49 48 50 46 44 46 49 56 56
30 29 31 31 28 28 29 30 34 37 41 44 46 47 48 54 59 63 64 66 69 67 63 59 58 58 58 61 63 60 58 58 60 58 57 53 53 53 50 48 45 43 47
30 28 27 26 26 27 29 30 32 34 36 38 41 44 49 54 59 65 68 71 71 72 71 68 67 63 60 57 53 53 55 53 58 59 59 58 56 55 50 54 53 57 59
29 28 26 25 25 27 30 32 33 34 36 39 41 45 49 55 61 68 71 73 74 74 75 75 74 70 68 64 60 57 55 51 52 54 57 59 61 60 55 56 63 64 66
30 28 28 28 28 29 31 32 35 38 41 43 44 48 52 53 61 71 75 75 76 76 77 76 79 77 72 69 66 64 60 57 57 55 53 53 53 55 59 64 64 67 71
33 32 32 32 33 33 34 36 39 43 45 48 49 52 57 57 56 65 74 74 78 77 76 78 78 79 79 75 71 68 66 64 63 57 56 63 59 57 60 64 68 67 66